Location: Bullenkuhlen
(53.7689°N, 9.7495°E)
Time: 22:54:51
(UTC+00:00)

Cosmos 1241 Rocket - Pass Details

Date: 09 April 2020
Orbit: 940 x 1008 km, 65.8° (Epoch: 27 May)

Event Time Altitude Azimuth Distance (km) Brightness Sun altitude
Rises 22:07:03 0° 316° (NW) 3,624 8.5 -26.2°
Reaches altitude 10° 22:09:36 10° 318° (NW) 2,682 7.7 -26.3°
Maximum altitude 22:15:53 80° 46° (NE) 980 4.4 -26.6°
Enters shadow 22:16:59 62° 117° (ESE) 1,077 4.4 -26.7°
